User: anonymous   Login
Location: Austin
(30.3000°N, 97.7500°W)
Time: 23:39:56
(UTC-05:00)
Language:

Meteor 1-25 Rocket - Orbit

View from above orbital plane
View from above orbital plane
View from above satellite
View from above satellite

Ground track
Ground track

The orbit data is extracted from the following two-line orbital elements,

1 08846U 76043B   24194.59940405  .00000287  00000-0  15831-3 0  9990
2 08846  81.2255 318.5818 0037309 290.3199  69.3963 14.08805385474339
Epoch (UTC): 12 July 2024 14:23:08
Eccentricity: 0.0037309
inclination: 81.2255°
perigee height: 836 km
apogee height: 890 km
right ascension of ascending node: 318.5818°
argument of perigee: 290.3199°
revolutions per day: 14.08805385
mean anomaly at epoch: 69.3963°
orbit number at epoch: 47433

The dashed part of the orbit path shows where the satellite is in the earth's shadow,  

DLR